Weather in Ust'ye

Russia / Nenets Autonomous Okrug     67°34′03″N   52°35′29″E
temp.,
°C
wind,
m/s
gust,
m/s
humid.,
%
clouds,
%
prec.,
mm/h
press.,
hPa
HPBL,
m
6 march, sat
sat600:00−23nnw479798 0.1 1003223
03:00−26nnw349795 0.1 100476
06:00−25nw469899 0.1 1003176
09:00−24nw469698 0.1 1003243
12:00−22nw3495100 0.1 1004304
15:00−23wnw349697 0.1 1004103
18:00−25wnw339887 0.0 100428
21:00−27w339885 0.1 100520
7 march, sun
sun700:00−26w239879 0.0 100422
03:00−26wsw339884 0.1 100644
06:00−26sw2399100 0.1 100629
09:00−26se119899 0.1 100721
12:00−24ene229497 0.0 1009227
15:00−24ne229796 0.1 101033
18:00−26ne489899 0.1 1011180
21:00−29ne589894 0.1 1011184
8 march, mon
mon800:00−31nne579796 0.1 1012179
03:00−33ne599896 0.1 1013150
06:00−35ne499792 0.0 1012137
09:00−33ne499691 0.0 1013259
12:00−30ne479351 0.0 1014319
15:00−30n479551 0.0 1014191
18:00−34n34980 0.0 101533
21:00−34n33990 0.0 101520
9 march, tue
tue900:00−34nnw339936 0.0 101519
03:00−33nw339955 0.0 101419
06:00−32nw339990 0.0 101421
09:00−29w339692 0.0 101385
12:00−26w469345 0.0 1013234
15:00−24wsw479771 0.1 1012284
18:00−25sw4598100 0.1 101094
21:00−27wsw3498100 0.1 101043
10 march, wed
wed1000:00−24wsw3497100 0.0 100882
03:00−20wsw5993100 0.0 1006233
06:00−15wnw51195100 0.4 1003319
09:00−13n5990100 0.8 1002675
12:00−15n5890100 0.0 1004542
15:00−17nnw3694100 0.0 1005244
18:00−18w2392100 0.0 100527
21:00−16sw3596100 0.4 1004120